Regional Weather Roundup
Issued by NWS

Home | Current Version | Previous Version | Graphics & Text | Print | Product List | Glossary On
Versions: 1 2 3 4 5 6 7 8 9 10 11 12 13 14 15 16 17 18 19 20 21 22 23 24 25 26 27 28 29 30 31 32 33 34 35 36 37 38 39 40 41 42 43 44 45 46 47 48 49 50
000
ASUS43 KLMK 181110
RWRKY
KENTUCKY REGIONAL WEATHER ROUNDUP
NATIONAL WEATHER SERVICE LOUISVILLE KY
600 AM EST SUN FEB 18 2018

NOTE "FAIR" INDICATES FEW OR NO CLOUDS BELOW 12,000 FEET
WITH NO SIGNIFICANT WEATHER AND/OR OBSTRUCTIONS TO VISIBILITY.

KYZ001>023-026-027-061>063-070>075-181200-
WESTERN AND SOUTH CENTRAL KENTUCKY

CITY           SKY/WX    TMP DP  RH WIND       PRES   REMARKS
PADUCAH        FOG       30  27  88 NE5       30.32R VSB 1/2 WCI  25
HENDERSON      FAIR      28  27  96 CALM      30.33S FOG
OWENSBORO      FAIR      30  29  96 CALM      30.35R FOG
HOPKINSVILLE   FAIR      30  30 100 CALM      30.32R FOG
BOWLING GREEN  FAIR      32  31  96 CALM      30.34R
GLASGOW        FAIR     N/A N/A N/A CALM      30.33R
$$

KYZ024-025-028>034-038-045-046-053-181200-
NORTH CENTRAL KENTUCKY

CITY           SKY/WX    TMP DP  RH WIND       PRES   REMARKS
LOUISVILLE/SDF MOCLDY    33  31  92 CALM      30.34R
LOUISVILLE/LOU FOG       29  28  96 CALM      30.35R VSB 1/2
FORT KNOX      FAIR      29  28  99 CALM      30.34R
$$

KYZ035>037-039>044-047>052-055>060-089>105-181200-
NORTHEAST KENTUCKY

CITY           SKY/WX    TMP DP  RH WIND       PRES   REMARKS
LEXINGTON      FAIR      32  26  78 W3        30.33R
COVINGTON      CLOUDY    32  30  92 CALM      30.32R
FRANKFORT      FAIR      30  25  81 SW3       30.32R
$$

KYZ054-064>069-076>088-106>120-181200-
SOUTHEAST KENTUCKY

CITY           SKY/WX    TMP DP  RH WIND       PRES   REMARKS
JACKSON        FAIR      35  30  82 CALM      30.30R
LONDON         FAIR      35  32  88 CALM      30.30R
SOMERSET       FAIR      32  32 100 CALM      30.33R FOG
MIDDLESBORO    FAIR      35  35 100 CALM      30.30R
MONTICELLO     NOT AVBL
$$





USA.gov is the U.S. government's official web portal to all federal, state and local government web resources and services.